Theta_e
348 348 347 346 346 347 348 347 346 346 345 345 345 345 345 344 344 344 345 345 345 343 343 343 342 342 342 342 342 341 341 340 339 338 337 337 336 336 335 334 334 333 332 331 331 331 331 330 329 329 329 329 328 326 326 326 326 325 325 324 324 324 322 321 322 318 314 312 311 309 308 308 307 307 307 306 306 305 305 304 303 303 304 304 304
348 348 348 347 347 347 348 347 346 346 346 346 345 345 345 344 344 344 345 345 344 344 343 343 342 342 342 341 341 341 340 340 339 338 337 336 336 335 335 334 333 332 331 330 329 329 329 328 328 328 328 328 327 326 325 325 325 325 324 323 323 322 322 321 320 318 315 313 312 310 308 307 307 306 306 306 306 306 305 305 304 304 305 305 304
348 349 348 348 348 348 348 348 347 347 346 346 345 345 345 344 344 344 344 344 344 344 343 342 342 342 341 341 341 340 340 339 338 337 337 336 335 335 334 333 332 331 330 329 328 327 327 326 327 327 327 327 326 324 323 323 322 322 322 321 321 321 321 320 319 318 316 314 313 311 308 308 307 306 306 306 306 306 306 305 304 305 305 305 304
348 348 348 348 348 348 349 348 348 347 347 346 346 345 345 344 344 344 344 344 344 343 343 342 341 341 341 341 340 340 339 338 338 337 336 335 335 334 333 332 331 330 328 327 326 326 325 326 326 326 326 325 323 321 321 320 319 319 319 318 319 319 320 319 318 317 316 315 314 311 310 309 308 306 306 305 305 305 305 304 304 305 305 304 303
347 348 348 348 349 349 349 348 348 348 348 347 346 346 345 345 344 343 343 343 343 343 342 341 341 341 341 340 340 339 338 338 337 336 335 334 334 333 332 331 329 327 325 325 325 324 324 325 324 324 323 322 320 319 318 318 317 317 317 316 317 317 318 318 316 315 316 315 314 311 310 310 308 306 305 305 305 305 305 305 305 305 305 305 304
344 346 348 348 349 349 349 349 347 347 348 347 347 346 346 345 344 343 343 343 342 342 342 341 340 341 340 340 339 338 338 337 337 336 334 334 334 332 331 330 328 325 324 324 324 323 323 323 322 322 321 319 318 318 316 317 317 316 316 316 315 315 316 317 315 313 314 315 313 311 309 309 308 306 305 305 305 304 304 305 306 306 306 305 305
340 344 347 348 349 349 349 349 348 348 348 348 347 347 346 345 344 344 343 342 342 342 341 340 340 340 340 339 339 338 337 337 336 335 334 334 333 332 331 329 326 324 324 323 322 321 321 321 320 320 319 317 317 316 315 317 317 315 315 315 314 315 315 315 314 312 313 314 313 311 309 308 307 307 306 305 305 305 304 304 305 306 307 306 305
337 339 345 348 349 349 349 348 348 348 348 348 347 347 347 345 344 344 343 342 342 341 340 340 339 340 340 339 338 337 336 336 335 335 334 333 332 331 330 327 324 323 323 321 320 319 319 319 319 319 318 316 316 315 315 316 315 314 315 315 314 315 315 314 313 313 313 313 313 311 308 308 307 306 306 306 305 305 305 305 305 306 306 306 306
336 336 341 347 349 349 349 348 348 348 347 347 348 347 347 345 344 344 343 342 342 341 340 340 340 339 339 338 337 336 336 335 335 334 334 333 332 331 329 325 322 322 321 319 319 318 318 317 318 318 316 315 316 315 314 315 314 314 315 314 314 315 315 314 313 313 313 312 312 310 308 308 307 306 306 307 306 306 307 307 306 305 304 305 306
336 335 339 346 348 348 349 348 347 348 348 348 348 347 346 346 344 344 343 342 341 340 340 340 340 339 338 337 336 336 336 335 334 333 333 333 332 330 327 323 322 321 320 319 319 318 317 317 317 316 314 314 315 314 314 315 313 314 315 314 314 315 315 314 313 313 313 311 310 309 309 309 308 306 306 307 307 308 308 306 306 306 305 305 306
336 334 336 345 348 347 348 348 347 348 348 347 348 347 346 346 345 344 343 342 341 340 340 340 340 339 338 337 336 336 335 335 334 333 333 333 331 329 326 323 321 320 320 320 318 316 316 316 315 314 313 314 314 314 314 314 313 314 315 314 314 315 314 312 313 312 310 308 308 309 309 309 308 307 307 307 308 308 307 306 307 306 305 305 306
337 334 334 339 346 347 347 348 348 347 347 347 347 347 346 346 345 344 343 342 342 340 340 340 340 339 338 337 337 336 335 335 334 333 332 332 330 328 325 322 321 321 321 319 317 316 316 315 314 313 312 312 312 312 312 312 312 313 314 313 313 313 312 312 312 310 307 307 308 309 309 308 307 308 307 308 309 308 306 306 306 305 304 304 304
336 335 333 334 340 346 347 347 348 347 347 347 347 347 346 346 345 344 343 342 341 341 340 340 340 339 337 337 336 336 335 334 334 333 332 331 328 326 324 321 320 321 320 318 317 316 315 314 313 311 311 311 310 311 310 310 310 311 312 311 311 312 312 312 311 308 307 308 308 309 309 307 307 308 308 307 308 308 307 307 306 305 304 304 303
337 337 336 336 339 342 345 347 347 347 347 347 347 347 346 346 345 343 343 342 341 341 341 340 340 339 337 336 336 335 335 334 333 333 331 328 326 325 323 321 320 320 319 318 317 316 314 314 313 311 310 310 309 309 309 308 309 309 310 310 310 311 311 310 309 307 306 307 309 309 308 307 307 308 307 307 307 307 306 307 306 306 305 304 304
339 339 339 340 340 340 343 344 344 346 347 347 346 346 346 345 344 343 343 342 342 341 340 340 340 339 337 336 336 335 334 333 333 333 330 327 325 324 322 321 320 320 319 317 317 315 314 314 314 312 310 309 308 307 307 306 306 307 308 308 308 309 309 309 307 305 305 307 308 309 307 307 308 308 307 307 306 304 305 307 307 306 305 304 304
336 338 338 340 341 342 343 342 341 343 346 346 346 346 346 345 344 343 343 342 342 341 340 340 339 338 337 336 335 334 333 333 333 333 330 328 326 323 322 321 320 319 318 317 316 315 313 314 315 313 310 308 307 305 304 303 302 304 305 305 306 306 308 308 305 303 305 307 308 308 307 307 308 308 307 307 305 303 305 306 305 304 304 304 304
333 336 336 338 339 342 345 344 342 344 346 346 346 346 345 345 344 343 342 342 342 341 340 340 339 338 337 336 335 334 333 332 332 331 330 329 326 323 321 320 319 318 318 316 315 315 313 313 314 313 310 307 306 305 304 302 300 301 302 303 304 305 305 305 303 300 303 307 306 306 307 307 307 307 307 306 303 301 302 304 304 303 304 306 306
333 334 335 336 338 340 343 345 345 346 346 346 346 346 345 344 343 342 342 342 341 340 339 339 338 337 336 335 334 333 332 332 331 330 329 328 326 322 320 320 319 318 317 316 315 314 314 313 314 313 310 308 306 306 307 305 302 302 304 305 306 306 305 303 300 298 301 305 305 304 305 306 306 307 306 304 301 298 298 302 304 305 305 306 306
333 333 334 336 337 338 340 343 345 346 346 346 345 345 344 343 343 342 341 341 341 339 339 338 337 336 336 335 334 332 331 331 330 329 328 327 325 322 320 320 319 317 317 316 315 315 314 314 314 313 311 310 307 306 308 308 306 306 307 308 306 305 305 304 302 300 300 302 303 303 303 304 305 305 304 302 300 297 297 299 302 303 304 304 305
334 334 335 337 337 337 338 340 340 342 345 345 345 344 343 342 342 342 341 341 340 339 338 337 337 336 335 334 333 332 332 331 329 328 328 327 325 322 319 319 318 317 316 316 315 315 314 314 313 312 312 313 310 307 307 308 308 308 309 309 307 305 305 306 306 304 302 301 301 301 301 301 302 301 300 299 298 297 297 298 299 300 302 303 304
332 335 336 337 337 337 337 336 336 338 343 345 344 343 343 342 342 341 340 340 339 338 337 336 336 335 334 334 334 332 331 331 328 328 327 327 326 322 318 318 319 316 316 316 314 314 314 314 313 312 312 313 312 309 307 306 308 310 310 309 307 305 306 308 308 307 305 302 299 299 298 297 297 297 296 296 296 296 296 297 298 298 299 301 302
331 332 334 336 336 336 336 336 337 340 343 344 343 342 342 341 341 341 340 339 338 337 337 335 335 335 334 334 333 331 331 330 328 327 326 326 326 322 317 318 318 317 316 316 314 314 314 314 313 311 311 312 312 311 308 305 306 309 310 308 308 307 307 309 308 307 305 302 299 298 298 297 297 298 298 298 298 297 297 297 297 297 298 298 301
330 330 331 335 336 336 336 337 339 342 343 343 342 341 341 341 341 340 339 338 337 337 336 335 335 335 334 334 333 331 330 330 329 327 326 326 326 322 317 317 319 317 316 316 315 314 314 314 313 311 310 311 311 311 309 306 305 307 308 308 308 308 307 307 306 306 306 304 301 300 301 301 302 303 304 304 303 302 301 301 299 298 297 297 298
331 331 330 332 335 337 338 340 342 343 343 341 341 341 340 340 340 339 339 338 337 337 336 335 335 335 334 334 333 330 329 329 329 328 326 326 325 321 316 317 319 317 317 317 315 314 314 314 314 312 310 310 310 310 309 307 304 304 306 307 307 307 306 305 306 306 306 306 305 304 305 305 305 305 306 306 306 305 305 304 303 301 300 299 299
331 333 333 332 334 337 341 343 343 343 342 341 340 340 339 339 339 339 338 338 337 337 336 335 335 334 333 333 332 329 327 327 328 327 326 326 324 319 315 317 318 317 317 317 315 315 314 313 314 313 311 310 310 309 308 307 303 302 304 305 306 306 305 304 306 307 306 306 306 305 304 303 303 303 303 303 304 306 305 305 303 302 303 303 303
331 333 335 334 334 338 342 343 342 341 341 340 339 339 339 339 338 338 338 337 337 337 335 335 335 334 333 333 332 327 324 325 326 326 324 325 323 318 314 315 316 316 317 317 315 314 314 313 313 313 311 309 309 309 307 305 302 301 302 302 303 304 304 303 304 306 305 304 304 303 302 302 301 301 301 301 303 305 305 304 303 303 304 305 305
331 332 335 335 334 337 340 341 341 341 340 339 339 339 338 338 337 337 337 337 336 336 335 334 334 333 333 333 331 326 321 322 324 324 322 323 322 317 312 314 315 314 315 316 316 314 314 313 312 312 310 308 308 307 306 303 302 301 300 300 300 302 303 303 302 304 304 303 302 302 301 301 301 301 301 302 303 304 304 303 303 304 305 306 306
335 336 337 335 333 335 337 338 339 341 340 339 339 338 337 337 337 336 336 336 336 335 334 333 333 333 332 332 330 326 321 320 323 324 321 321 321 315 310 312 313 313 314 315 314 313 312 312 311 309 308 306 305 305 304 303 302 302 302 302 301 300 301 301 301 302 302 302 301 301 301 300 300 301 301 301 302 303 303 303 304 305 305 305 305
335 335 334 332 332 333 334 334 336 339 339 339 338 338 337 337 337 336 336 336 336 335 334 333 333 332 332 332 330 327 323 321 323 325 323 322 321 315 309 311 313 312 313 313 312 311 310 309 307 306 305 304 304 303 303 303 302 303 303 302 302 301 301 301 301 301 301 300 300 301 301 302 302 301 301 301 302 303 303 303 304 305 304 303 302
334 333 332 331 330 331 331 332 334 338 339 339 338 337 337 337 337 336 336 336 336 336 334 333 333 332 332 331 330 328 325 322 323 325 323 322 322 315 308 310 313 312 313 313 311 309 308 307 305 305 304 304 304 304 304 304 304 303 303 303 302 302 302 301 301 300 300 300 300 300 301 302 303 303 303 303 303 303 304 304 304 304 303 301 300
333 332 331 331 331 330 331 332 333 336 338 339 338 337 336 336 336 336 336 335 335 335 334 333 332 332 332 331 330 329 326 323 323 325 324 323 321 314 307 309 313 313 313 313 310 309 308 308 307 306 305 305 305 305 305 306 306 305 305 304 303 303 303 303 302 301 300 299 300 300 300 301 303 304 305 304 304 303 303 303 303 302 301 300 299
331 330 330 331 332 331 331 332 333 334 336 338 338 336 334 332 332 333 334 335 335 335 333 332 332 331 332 332 331 329 327 323 323 326 326 324 320 312 307 309 312 313 313 313 311 310 310 310 309 308 307 307 306 306 306 307 307 307 307 306 305 304 304 304 304 303 302 300 300 300 301 303 304 305 306 305 304 303 302 302 301 300 300 299 300
331 331 330 331 332 331 331 332 333 333 335 336 336 335 333 331 329 328 329 332 334 334 333 332 332 332 332 332 331 329 327 324 324 325 326 324 319 311 307 310 312 312 312 313 312 311 311 311 310 310 309 308 308 307 307 308 308 309 309 308 307 306 305 305 305 305 304 303 302 301 302 303 305 306 306 305 304 303 302 301 300 299 299 299 300
331 331 331 331 330 330 330 331 331 332 333 334 334 332 331 330 329 327 325 326 328 329 330 330 332 332 331 331 330 328 327 325 325 324 324 322 317 310 307 309 312 312 311 312 311 312 312 312 311 311 310 310 310 309 308 309 309 309 310 310 309 308 307 307 306 306 305 305 304 303 302 303 304 305 305 305 304 303 302 301 300 300 299 299 299
329 330 329 329 329 329 330 330 330 330 331 331 331 331 330 330 329 327 324 323 324 325 325 326 328 329 329 329 328 327 326 326 325 324 322 318 313 309 307 308 310 311 310 310 310 311 313 313 313 313 312 311 311 311 310 310 310 311 311 311 311 310 309 308 307 306 306 306 305 304 304 304 304 305 305 305 304 303 302 301 300 300 300 300 300
329 329 329 329 329 329 330 330 330 330 330 330 330 330 329 328 327 326 324 324 324 324 323 323 324 326 326 327 327 326 325 324 324 323 321 315 310 308 308 307 307 309 309 309 309 310 311 313 314 314 314 313 313 312 312 312 312 312 312 312 312 311 310 309 309 308 307 306 306 305 305 305 305 305 305 305 304 303 302 301 301 300 300 300 300
329 329 328 328 329 328 329 329 329 329 329 329 329 329 327 326 326 325 324 323 323 323 322 322 322 322 323 324 325 324 324 324 323 323 320 315 310 309 309 308 307 308 308 309 309 309 310 311 313 314 315 315 314 314 313 313 313 313 313 312 312 312 311 310 310 309 308 307 306 306 306 306 305 305 305 304 304 303 303 302 302 301 300 300 301
326 327 328 328 328 328 329 328 328 328 327 327 328 327 326 324 324 324 323 323 322 322 321 320 320 320 321 322 323 322 321 319 317 315 314 311 309 310 310 309 308 308 308 309 309 309 309 310 311 313 314 315 315 314 314 314 314 314 313 313 312 312 311 311 310 309 308 308 307 306 306 306 305 305 305 304 304 303 303 303 302 301 301 301 301
323 324 325 326 328 328 328 327 327 327 327 327 327 326 324 322 322 322 322 322 321 322 321 319 319 320 321 320 319 317 313 310 308 307 307 307 308 309 310 310 309 309 309 309 309 309 310 310 311 313 313 313 314 314 314 314 314 314 313 312 312 311 310 309 309 309 308 308 307 307 306 306 305 305 304 304 304 303 303 303 303 302 302 302 302
320 320 321 323 325 327 327 327 327 327 327 327 327 326 324 322 321 322 322 322 321 321 321 320 320 320 320 319 318 315 311 308 307 307 306 306 308 310 311 310 309 309 309 310 310 310 311 312 313 313 313 314 314 314 314 314 314 313 312 312 311 310 309 308 308 308 307 307 307 306 306 305 305 305 304 304 304 304 303 303 303 302 302 302 302
319 319 319 320 322 324 326 326 326 326 327 327 327 325 324 323 322 322 323 322 321 321 320 320 320 320 319 319 320 319 314 311 309 308 307 307 308 310 311 310 310 310 310 310 311 311 312 313 314 314 314 314 314 314 315 315 314 313 312 311 310 309 309 308 308 307 306 306 306 306 306 305 305 305 304 304 304 304 304 303 302 302 302 302 302
317 317 317 318 319 321 322 322 323 324 324 325 325 324 323 322 322 322 322 322 321 320 320 320 320 319 318 317 317 317 315 312 310 309 308 308 309 311 311 311 311 311 311 311 311 312 313 314 314 314 314 314 314 314 315 314 313 312 312 311 310 309 309 308 308 307 306 306 306 306 305 305 305 304 304 304 303 303 303 303 302 302 302 302 302
316 316 316 316 317 318 318 319 320 320 321 322 322 322 322 321 321 321 321 321 320 320 319 319 319 318 317 316 313 312 311 311 310 309 309 309 309 311 312 311 311 311 312 312 312 313 313 314 314 314 315 315 314 315 314 314 313 312 312 311 310 310 309 308 308 307 306 305 305 305 305 304 304 303 303 302 302 302 302 302 302 302 302 301 301
315 316 315 315 316 316 317 317 318 318 319 319 320 320 320 320 320 320 320 320 319 319 318 318 317 316 315 313 310 309 309 310 309 308 309 309 309 310 311 312 312 312 313 313 314 314 314 314 314 314 315 314 314 314 314 313 313 312 312 311 311 310 309 309 308 307 307 306 305 305 304 304 303 302 302 301 301 301 301 301 301 301 301 301 301
314 314 314 314 315 315 315 315 315 316 316 317 317 318 318 318 318 318 318 318 318 317 317 317 316 314 312 310 308 308 310 311 309 308 308 308 308 309 311 313 314 314 314 314 314 314 314 314 314 314 315 314 314 313 313 312 312 312 311 311 311 310 309 309 308 308 307 306 306 305 304 303 303 302 301 300 301 301 301 301 301 301 301 301 301
314 313 313 313 313 313 313 314 314 314 315 315 315 315 316 316 317 317 317 316 316 316 316 316 314 312 309 308 307 309 311 311 309 308 308 308 308 309 311 313 315 315 314 315 315 315 315 315 314 314 314 314 313 312 312 312 311 311 311 310 310 310 309 309 308 307 307 306 306 305 304 303 302 301 300 300 300 300 300 300 301 301 301 301 301
315 314 313 313 312 312 312 312 313 313 314 314 314 314 314 314 315 315 315 315 315 315 315 315 314 311 309 307 307 309 311 311 310 309 309 309 309 310 312 314 315 315 315 315 315 315 315 315 314 314 314 312 312 311 311 311 311 310 310 309 309 309 309 308 307 307 306 306 305 304 303 302 301 300 300 299 299 300 300 300 300 300 301 301 301
315 315 315 314 313 312 312 312 312 313 313 313 313 313 312 313 313 313 313 313 313 313 313 312 311 310 309 308 308 309 312 312 312 311 310 310 311 311 312 314 315 315 315 315 314 314 314 314 313 313 313 312 311 311 311 311 310 310 309 309 308 308 308 307 306 306 305 305 304 303 302 301 300 300 300 299 299 299 299 299 299 300 300 300 300
315 315 315 314 314 313 313 313 312 313 312 312 312 312 311 311 312 312 312 312 312 311 311 310 309 309 309 308 308 310 311 313 313 312 312 312 312 312 313 313 314 314 314 313 313 313 313 313 312 312 312 312 311 310 310 310 309 309 309 308 308 308 307 307 306 305 305 304 303 302 301 301 300 300 300 300 300 299 299 298 299 299 299 300 300
315 315 314 314 314 314 314 313 313 312 312 311 311 310 310 310 311 311 311 311 311 311 311 310 309 309 308 308 309 310 311 312 312 312 312 312 312 312 312 313 313 313 312 312 312 312 312 312 312 311 311 310 310 309 309 309 308 308 308 308 308 307 307 306 306 305 304 304 303 302 301 300 300 300 300 300 300 299 299 298 298 299 299 299 299
315 315 315 315 315 314 314 314 313 312 312 311 311 310 310 310 310 310 310 311 310 310 310 310 309 309 309 309 309 310 311 311 311 311 311 311 311 311 311 311 311 311 312 312 311 312 311 311 310 310 309 309 308 309 309 308 307 307 307 307 307 307 306 306 305 305 304 303 302 301 301 301 301 300 300 300 299 299 299 298 298 298 298 298 298
Wind_Speed
34 34 33 34 35 35 35 36 35 35 35 33 33 33 31 30 30 29 29 29 27 28 29 28 29 29 27 25 24 24 23 23 23 23 21 21 20 19 18 17 17 16 14 14 14 15 15 15 16 17 17 16 13 12 14 13 12 11 11 12 11 11 12 11 6 6 8 14 14 11 15 17 12 11 12 12 11 10 7 5 6 7 7 9 10
34 35 34 35 37 36 35 37 36 35 35 33 33 33 32 31 31 30 29 29 27 27 28 28 28 28 27 25 25 24 24 23 23 23 22 21 20 19 18 19 18 17 16 17 17 16 16 16 17 18 17 16 15 12 12 13 13 14 16 15 13 14 14 13 10 10 11 12 13 11 13 15 12 9 10 11 10 8 5 5 7 8 7 8 10
35 37 37 37 39 38 36 37 37 35 34 34 34 33 32 31 31 31 30 29 28 27 28 28 28 28 26 26 25 25 25 24 24 24 23 22 21 20 19 19 20 19 17 17 16 16 17 18 18 18 17 17 16 14 13 14 15 16 17 17 14 14 16 15 12 12 16 14 12 12 12 11 10 9 10 11 9 7 5 5 6 7 6 7 8
37 37 37 38 40 39 38 37 36 35 33 34 34 34 32 31 31 31 30 29 28 28 27 27 28 27 27 26 26 26 26 25 25 25 23 22 22 21 19 18 19 19 17 17 17 17 19 19 18 19 19 17 17 16 15 15 16 17 16 17 15 12 14 17 13 11 17 18 14 12 13 12 9 8 9 11 12 10 7 6 7 7 7 8 8
38 39 38 38 40 40 39 38 37 37 34 33 34 34 32 32 32 31 31 30 29 29 28 27 28 28 27 28 27 27 27 26 25 24 23 23 22 22 20 18 18 19 18 18 19 19 19 19 18 18 20 18 17 18 17 14 16 16 15 16 16 12 12 16 15 10 13 19 17 12 13 14 10 7 7 8 11 11 9 9 10 9 9 8 8
34 38 40 40 40 40 40 39 38 38 35 33 34 34 32 32 32 31 31 31 30 30 29 28 28 28 28 28 28 27 27 27 26 25 24 23 23 22 21 20 19 19 19 19 19 19 20 20 18 18 20 19 18 19 17 15 15 15 13 13 15 14 13 14 14 11 9 15 17 13 12 13 11 8 7 7 8 9 7 8 11 12 10 8 9
32 36 39 39 39 40 40 39 38 37 36 34 34 33 32 33 33 32 32 32 31 31 30 29 29 29 29 29 28 28 28 27 26 26 25 24 24 22 21 22 20 19 20 20 19 19 19 20 19 18 19 20 19 20 18 16 17 15 14 14 13 14 16 14 13 12 10 11 14 14 12 10 10 9 7 8 9 8 6 6 8 10 12 12 10
33 36 38 38 38 38 39 39 38 37 37 35 34 33 32 33 33 32 33 33 32 32 30 29 29 30 30 29 28 28 28 27 26 27 26 25 25 24 21 21 20 19 20 20 19 19 19 19 19 19 19 18 18 19 18 18 19 15 15 16 12 14 18 16 14 13 13 11 12 14 13 10 12 10 7 8 8 6 8 7 4 4 7 10 10
33 35 36 37 37 37 37 37 36 36 36 35 35 34 33 33 33 32 33 34 33 31 30 29 29 30 29 29 29 28 29 29 28 27 26 25 25 25 23 22 21 20 20 20 19 19 18 18 18 18 18 18 19 20 18 19 20 16 16 18 14 15 18 17 15 15 15 13 11 13 13 11 14 13 9 9 7 4 6 6 3 4 6 7 8
34 35 35 35 35 35 36 37 35 35 36 35 35 36 34 33 33 32 33 34 33 32 31 30 30 31 30 29 29 28 29 31 30 29 28 26 26 26 23 22 21 20 21 20 20 19 18 18 19 19 20 19 20 21 20 20 20 16 17 19 15 16 18 17 17 16 16 14 12 12 13 13 15 16 14 12 9 6 6 4 3 4 6 6 8
33 31 32 32 34 34 35 36 35 35 36 36 36 36 34 34 34 32 32 33 34 34 32 31 31 31 30 29 29 29 29 31 31 30 29 28 28 27 24 23 22 22 22 21 21 21 19 19 20 20 21 21 21 22 21 20 20 17 18 20 16 16 18 17 17 16 15 14 12 12 15 14 15 16 15 14 12 9 6 4 4 4 4 5 6
32 30 29 28 30 32 32 34 34 34 35 35 36 36 34 34 34 33 32 33 34 34 33 31 31 32 31 30 31 30 30 31 30 29 29 28 29 28 24 23 24 23 23 22 22 22 20 20 22 21 22 23 22 22 22 21 20 18 19 20 18 17 18 18 19 18 15 15 13 13 15 14 13 14 15 14 11 10 8 6 6 5 4 5 6
31 32 31 30 30 30 31 33 34 35 35 35 36 37 35 33 34 35 33 33 33 33 33 32 32 33 33 32 31 30 30 32 30 29 29 29 30 29 24 24 25 24 23 23 23 24 22 21 23 23 22 23 23 23 23 22 20 18 18 19 19 18 17 17 19 18 17 16 12 10 13 13 12 14 15 14 11 10 9 8 9 8 6 5 7
31 32 32 32 31 29 30 32 34 35 36 34 35 37 36 34 35 35 33 33 33 33 33 33 32 33 33 31 30 30 32 34 32 31 31 29 28 27 23 23 25 24 24 24 23 25 24 22 24 24 22 23 24 24 24 23 21 19 18 19 19 18 17 17 18 17 17 17 9 4 8 12 12 14 16 15 13 11 8 6 7 8 7 6 9
30 30 29 30 31 30 30 31 33 34 35 35 34 35 35 34 35 35 33 33 34 32 32 33 32 32 32 30 30 31 33 34 34 34 34 31 28 25 21 22 25 23 24 25 24 26 26 23 23 24 24 24 25 25 25 24 23 21 19 19 19 18 17 17 17 16 17 15 9 5 8 10 12 15 16 15 14 11 10 8 7 7 7 8 10
23 26 26 27 29 30 30 30 31 33 34 34 33 33 34 35 35 35 33 33 33 31 31 33 32 32 32 31 30 31 33 33 33 36 37 33 30 27 22 22 25 23 23 25 24 25 26 23 22 23 24 25 24 24 24 24 24 23 21 19 17 17 18 17 17 17 17 15 11 8 9 10 11 13 14 14 13 12 12 10 7 7 7 8 11
26 26 26 26 26 29 31 30 30 32 33 33 33 34 35 35 36 35 33 32 32 31 32 32 32 32 32 32 31 32 33 34 33 37 39 36 34 32 25 22 24 23 23 24 24 23 25 24 22 22 24 25 24 23 22 22 24 23 20 19 17 15 16 17 18 19 18 15 12 11 11 11 11 12 13 12 11 10 11 9 7 7 7 8 12
30 28 28 29 28 27 30 31 32 32 32 32 33 34 35 35 36 36 34 32 31 32 32 31 30 30 32 33 33 31 33 35 36 38 40 38 37 36 27 22 23 24 22 24 23 22 24 24 23 22 23 25 25 24 22 21 23 22 20 19 18 16 15 17 20 20 19 17 14 13 14 13 13 13 12 11 10 9 10 10 8 8 8 9 13
30 31 32 32 31 29 30 31 32 32 33 34 34 34 34 35 36 36 34 32 30 31 32 31 29 30 31 32 32 32 32 35 38 40 41 38 38 37 29 22 23 24 23 23 23 22 22 24 23 22 22 24 25 27 25 22 21 21 21 20 19 19 18 19 20 20 20 20 19 17 16 15 15 15 13 13 13 12 12 12 11 10 9 9 11
27 30 34 34 31 30 28 27 27 29 32 34 35 35 35 34 34 35 34 32 30 30 32 32 29 30 31 31 32 33 34 37 41 42 41 38 38 37 30 23 24 25 23 24 24 22 22 24 25 24 23 23 26 28 27 25 21 20 21 21 20 20 19 19 20 19 19 21 21 20 19 17 16 16 15 15 16 14 14 15 14 13 12 11 9
30 27 31 35 33 29 26 27 30 31 33 35 35 35 35 35 34 35 34 32 31 31 33 32 29 29 31 31 31 33 36 40 44 43 40 38 39 39 32 24 24 26 24 23 24 23 22 25 27 27 24 23 25 27 28 27 22 19 20 20 18 18 19 19 19 16 15 18 21 21 21 19 18 18 17 17 17 16 17 17 17 16 16 14 11
34 29 28 32 35 33 30 33 38 37 35 35 35 34 35 36 35 34 33 32 32 32 33 32 29 28 29 30 30 32 36 40 44 43 40 38 40 41 34 24 24 27 25 23 24 24 23 24 27 29 25 22 24 26 26 27 25 19 18 18 17 16 18 18 17 14 12 15 19 20 19 19 18 17 17 18 17 17 18 19 19 19 18 17 15
31 33 31 30 32 34 34 36 39 38 36 37 37 35 35 35 35 35 34 32 31 31 31 31 29 27 28 30 30 32 37 41 43 42 40 38 40 42 34 23 23 28 26 24 25 24 23 24 26 28 27 24 24 26 25 26 27 22 18 17 17 17 17 16 16 17 16 16 19 19 18 18 18 17 17 17 16 16 17 16 17 18 18 19 18
28 32 35 33 31 32 35 38 38 38 39 40 38 36 36 36 35 36 35 34 32 30 30 31 30 28 29 29 28 30 37 43 43 41 40 39 40 42 35 23 23 28 26 24 25 24 24 24 24 26 28 26 25 26 25 26 28 26 21 19 17 17 19 17 15 17 19 18 19 20 18 18 18 18 17 17 17 18 18 16 14 15 16 17 17
27 29 34 36 33 31 33 36 37 37 40 40 38 36 37 36 35 35 35 34 32 29 29 31 31 28 27 28 27 29 36 42 43 41 40 39 41 43 35 24 23 28 26 24 24 23 23 23 23 23 25 26 26 26 25 25 27 27 24 21 19 18 20 19 14 15 18 17 17 19 18 18 18 18 17 18 19 21 22 20 16 14 14 16 16
28 27 28 32 34 33 34 34 35 37 40 40 38 38 38 37 36 36 35 34 32 30 30 30 30 28 27 27 27 28 32 39 43 42 41 40 42 44 37 26 23 27 27 23 24 23 22 22 23 23 24 27 27 27 25 24 25 25 24 23 21 19 21 21 17 16 18 17 16 17 18 17 17 17 17 18 18 18 20 21 20 20 19 19 18
27 27 30 33 31 29 30 30 32 35 38 38 37 36 38 37 36 34 33 33 32 31 30 30 29 28 27 27 28 28 31 38 43 44 44 45 45 46 42 31 24 25 25 23 23 23 21 21 23 24 25 26 27 26 25 24 23 23 22 22 22 20 21 22 20 18 18 18 18 18 18 17 16 16 17 19 18 16 16 17 19 20 21 20 19
15 16 25 34 31 29 30 30 30 32 35 37 36 35 36 36 35 36 37 36 34 32 31 31 32 32 30 29 30 28 29 37 44 47 49 51 51 50 47 37 28 25 25 23 22 23 22 24 26 27 28 28 27 25 25 24 24 23 21 20 22 22 21 21 21 20 19 19 18 18 18 19 19 18 18 20 20 19 18 16 16 16 17 18 18
9 7 19 30 32 32 32 31 31 32 33 35 36 36 38 39 38 38 40 40 38 36 35 34 35 36 34 33 33 31 30 38 46 49 51 53 54 54 52 44 34 29 26 25 26 27 27 29 30 29 29 28 26 24 23 23 24 24 22 21 21 22 22 22 22 22 21 20 20 19 18 18 19 20 21 22 22 22 20 18 17 17 16 17 17
17 17 21 25 26 25 23 25 30 31 32 34 34 34 36 38 37 35 36 38 38 38 38 37 36 36 34 34 36 35 33 36 42 45 49 52 53 54 53 47 38 32 28 27 30 31 30 29 28 27 28 27 25 24 23 22 23 23 23 23 22 22 23 24 23 23 23 22 21 21 20 19 19 20 22 22 20 19 20 18 19 20 20 20 20
18 19 22 23 24 26 24 24 28 29 29 31 31 29 29 31 33 32 33 35 36 38 40 39 38 36 34 32 34 35 33 34 38 43 49 53 53 53 52 47 41 36 31 30 31 31 29 27 25 25 26 25 24 25 24 23 24 24 23 25 25 24 24 24 24 23 23 23 23 22 21 22 21 21 21 19 17 17 18 18 19 21 21 22 21
15 16 19 20 23 27 28 27 28 30 28 27 28 27 25 23 24 26 30 34 36 38 40 40 39 39 37 34 33 35 35 35 38 45 52 55 55 54 52 48 44 40 35 32 32 31 29 27 25 24 24 24 25 26 25 24 25 25 24 25 27 26 25 25 24 23 23 24 25 24 23 23 23 21 19 17 16 16 16 18 19 21 21 21 21
15 17 18 19 21 23 23 23 25 26 25 24 25 26 24 22 20 19 22 28 32 36 39 39 40 42 41 37 36 37 36 34 37 45 55 58 56 55 54 51 47 44 40 34 30 29 29 27 25 24 24 23 24 26 25 24 24 25 24 25 27 28 28 26 24 23 23 24 25 26 26 25 23 20 17 16 17 17 17 17 19 21 22 21 21
14 18 21 21 20 20 19 20 22 24 24 24 24 24 25 25 23 20 17 18 22 28 32 34 38 43 42 39 38 38 37 36 38 47 56 59 57 55 55 51 46 45 43 39 33 29 28 26 25 25 24 23 24 25 26 25 25 25 25 25 26 27 27 27 27 26 25 24 24 26 28 28 26 22 19 18 18 18 19 19 20 20 21 21 21
5 9 16 19 19 19 19 20 22 23 23 22 23 23 25 25 24 23 21 18 18 21 24 26 33 38 38 36 37 39 39 38 41 48 55 57 55 53 50 45 41 39 39 37 35 32 29 27 25 25 24 24 24 25 26 27 26 26 26 26 27 27 26 27 29 30 28 26 25 25 26 28 29 26 22 19 18 18 19 20 20 19 19 18 18
5 6 9 13 16 19 20 18 19 21 23 23 23 24 25 24 23 22 22 20 20 20 20 22 27 30 31 32 35 39 40 40 41 47 52 54 54 51 47 42 39 37 36 34 33 31 30 27 25 23 23 23 25 26 27 27 27 27 27 25 25 27 29 29 29 29 29 28 26 24 24 25 27 27 24 22 21 20 20 20 20 19 19 18 17
4 5 5 7 12 16 15 11 11 12 14 16 19 21 23 25 25 24 22 21 21 21 21 23 25 25 26 28 31 34 38 41 43 46 49 52 53 52 47 43 40 38 36 33 30 28 27 26 24 23 22 22 23 25 26 26 26 27 28 28 26 26 25 23 22 22 23 23 23 24 25 23 24 25 25 24 23 23 22 22 21 21 21 21 19
8 3 2 3 9 13 13 10 8 8 9 12 16 20 23 24 26 27 25 24 23 22 21 24 26 25 25 27 29 32 35 38 40 42 46 51 53 49 44 42 41 39 36 33 31 29 28 26 24 23 23 22 20 19 22 25 25 25 25 26 25 22 18 16 17 18 20 21 23 25 27 25 22 22 23 23 24 24 24 23 23 23 23 23 23
17 14 10 5 2 9 13 13 11 11 14 16 17 19 20 21 22 22 22 23 25 24 23 24 24 25 27 29 31 32 33 34 36 40 43 47 49 45 40 38 40 40 38 36 35 35 33 30 27 25 24 24 23 21 22 24 26 27 24 21 19 18 17 18 20 21 22 25 27 26 25 25 23 22 23 23 23 24 24 23 23 23 24 24 24
20 19 16 10 4 4 11 14 12 13 16 17 18 19 21 21 21 21 19 20 21 22 23 24 25 27 30 33 36 37 36 35 36 39 42 43 42 40 38 39 39 39 39 39 39 38 35 31 29 27 26 26 25 25 25 25 24 24 23 20 19 20 20 21 22 22 21 23 26 26 23 22 22 22 23 23 23 23 23 24 24 24 25 25 24
18 17 16 11 6 3 7 11 12 14 16 18 18 20 21 22 24 24 22 21 21 21 22 24 27 30 34 39 44 45 42 39 38 39 41 41 40 38 38 40 41 41 42 43 42 39 35 31 28 27 28 28 26 26 27 27 23 22 22 22 23 25 25 24 23 23 22 21 22 23 23 21 22 22 23 23 23 23 24 25 25 25 25 25 24
15 14 13 10 7 4 3 6 8 10 13 15 16 16 17 20 24 24 22 21 22 24 24 25 26 29 32 38 45 46 40 37 38 39 39 40 40 38 39 41 42 44 45 44 41 37 34 31 28 26 27 28 28 27 26 25 23 22 24 25 26 27 28 27 26 26 26 25 23 23 23 23 24 24 23 23 24 24 24 25 26 25 25 24 24
14 12 12 10 8 6 3 2 3 5 9 11 11 11 13 17 21 21 21 21 23 26 26 25 26 28 30 36 41 38 30 28 34 38 38 39 40 38 38 39 39 40 39 38 37 35 33 32 30 27 26 27 30 29 25 21 21 23 25 27 27 26 27 28 28 28 29 28 26 25 26 25 24 24 24 24 24 24 24 24 24 25 25 24 23
14 12 11 10 9 8 7 5 2 2 5 6 7 8 11 14 17 18 19 20 22 25 26 25 25 26 28 33 38 34 27 27 34 37 37 38 39 38 36 36 35 35 35 35 36 36 35 34 33 31 28 27 28 28 25 22 23 24 25 26 26 24 23 26 29 30 30 29 28 28 28 27 26 24 24 24 24 23 22 22 23 24 26 25 24
16 13 11 10 10 9 8 7 5 2 0 2 4 6 9 12 14 14 15 15 16 18 18 17 20 24 27 32 37 35 31 31 35 35 34 36 38 37 36 34 33 35 36 36 37 37 35 34 34 34 31 28 28 29 28 25 23 24 24 24 26 25 24 24 27 29 30 29 29 28 27 27 27 26 25 24 23 23 23 23 22 22 23 25 24
17 14 11 10 11 10 10 10 9 6 4 3 2 3 5 8 9 10 11 12 12 12 11 11 15 19 22 28 34 34 31 31 33 33 34 35 36 36 35 33 33 35 37 37 36 35 32 33 37 36 32 28 27 28 27 25 23 23 23 23 24 26 25 23 22 23 25 26 26 26 26 25 26 28 27 25 23 22 23 24 23 21 22 23 24
16 14 12 12 12 11 11 12 11 9 8 6 3 3 3 3 4 5 7 9 11 13 12 12 15 18 19 22 28 30 28 28 30 33 35 35 34 34 34 33 31 32 32 32 33 31 29 31 36 36 31 27 26 26 25 24 24 24 23 22 23 24 25 23 22 22 22 22 23 24 25 25 25 26 27 25 23 22 22 24 24 23 22 22 23
16 14 13 13 13 12 11 12 11 10 10 8 5 4 3 4 4 5 6 7 8 10 10 10 14 18 19 21 25 25 20 21 26 30 32 33 32 32 33 33 30 29 29 30 32 32 28 27 30 31 30 28 26 25 25 25 25 24 23 21 21 21 22 21 20 20 21 22 22 23 24 25 24 25 25 25 23 22 21 22 24 24 23 22 22
15 13 12 11 11 10 10 11 10 10 10 8 6 5 3 4 5 6 7 7 7 7 7 7 10 13 14 17 21 18 12 12 19 26 30 31 32 33 34 34 32 30 30 30 31 31 30 28 28 30 31 30 27 25 26 26 25 23 23 22 21 20 20 19 18 18 20 21 21 22 23 23 22 22 23 24 23 21 20 20 21 24 25 24 22
15 12 9 9 10 10 9 9 8 8 8 7 6 5 4 3 5 7 8 8 8 8 8 8 10 12 12 14 16 12 5 5 12 19 24 28 31 32 33 33 30 29 28 28 27 27 28 29 29 29 29 29 28 27 27 25 23 21 21 21 21 20 20 19 19 19 19 20 22 22 24 24 22 20 20 21 21 22 22 20 18 20 23 24 24
19 15 10 7 7 8 8 8 6 5 5 5 5 4 4 4 5 6 7 8 9 9 8 9 10 12 14 15 16 13 9 9 11 12 15 20 23 24 24 24 23 22 24 25 25 24 25 26 26 26 27 29 30 29 27 24 21 20 20 20 20 20 20 20 21 20 19 20 22 22 22 23 22 21 20 19 18 19 21 22 20 19 19 20 22
Wind_Direction
178 183 191 193 197 202 200 198 197 196 195 193 188 188 192 193 191 188 187 188 188 187 186 186 188 188 188 190 193 194 194 194 193 191 191 191 193 197 197 195 195 196 202 205 206 207 204 202 206 209 212 217 219 206 200 207 213 213 216 223 225 208 204 221 205 125 130 163 168 167 166 168 180 193 195 202 209 211 218 252 259 252 264 271 270
184 186 192 195 198 202 199 196 197 197 195 191 188 188 191 192 190 187 186 187 189 188 187 187 188 188 187 188 190 192 193 194 192 191 191 190 191 192 192 192 194 202 210 207 208 216 214 210 210 209 210 211 211 209 205 206 211 215 218 222 223 210 202 210 200 153 137 156 167 168 166 169 182 198 202 203 203 206 220 243 240 235 245 259 267
190 190 193 196 199 201 198 195 196 196 193 190 187 187 190 191 188 186 185 186 189 190 190 188 187 187 187 187 188 189 191 193 193 193 192 190 190 190 190 192 198 207 211 206 209 216 212 209 208 204 203 202 200 202 203 205 210 210 214 220 221 209 198 201 197 162 153 163 171 173 177 186 196 201 207 206 194 191 212 239 236 221 217 242 268
194 195 195 196 199 201 199 194 193 194 193 190 187 187 189 189 187 185 184 186 188 189 190 188 187 187 187 187 188 188 190 192 194 194 194 192 192 191 189 191 197 206 208 203 207 208 202 203 204 199 198 196 196 203 204 207 211 209 210 213 214 208 191 193 200 176 162 168 179 186 189 195 201 200 203 202 193 197 219 233 228 224 233 253 269
195 195 197 198 199 200 199 194 191 193 193 190 187 187 188 187 186 184 183 184 186 188 190 189 188 190 189 188 188 190 191 192 193 194 195 197 195 192 193 195 199 202 202 200 202 202 197 198 198 196 194 192 197 204 206 207 210 211 212 206 203 205 188 185 196 196 169 165 174 187 187 182 184 194 199 192 186 201 233 238 225 231 246 247 244
200 197 198 198 199 200 197 192 190 192 192 189 188 187 186 185 185 185 183 182 184 188 191 193 192 192 192 190 189 191 190 191 194 196 197 199 197 195 197 201 201 200 199 199 200 198 195 194 196 196 194 194 198 202 204 206 203 206 212 202 196 197 185 175 184 197 181 166 171 181 178 170 172 185 205 214 204 208 237 244 227 225 229 222 223
209 205 200 198 200 199 195 191 190 190 189 187 188 187 185 185 185 185 184 182 184 187 191 195 196 194 193 192 192 191 191 192 194 196 200 199 196 197 198 197 197 198 197 197 198 196 194 193 196 199 197 197 198 197 200 202 199 204 207 200 195 188 177 169 178 191 189 175 174 177 175 171 173 186 209 218 212 212 234 259 245 225 218 212 213
212 213 203 197 198 197 193 191 190 190 188 186 186 186 186 186 185 186 186 184 184 186 190 195 198 195 194 193 193 193 192 192 193 195 200 199 195 200 200 192 192 196 195 194 196 196 194 193 196 199 197 197 196 196 201 200 198 202 200 195 191 178 171 171 181 190 190 189 180 168 170 178 183 196 214 191 185 209 223 234 258 248 229 219 216
209 218 209 197 197 196 192 192 191 189 188 185 184 186 187 186 186 186 187 186 185 185 190 195 197 195 195 195 194 193 192 193 193 195 200 199 195 198 198 190 190 194 192 192 194 194 192 193 196 196 193 195 196 196 198 196 195 196 189 187 185 173 168 174 187 191 186 188 176 160 172 191 187 192 201 185 185 208 196 194 229 281 270 253 249
206 218 215 200 194 193 190 191 192 190 188 186 184 185 187 187 186 187 188 187 186 185 191 197 195 194 196 196 195 194 193 194 195 196 202 204 198 196 194 189 191 194 191 190 191 190 190 193 194 193 193 196 196 195 194 191 192 191 183 184 184 174 171 179 191 188 179 181 175 166 186 202 191 189 196 193 192 182 161 173 222 256 267 268 277
202 216 221 205 192 191 190 189 191 191 189 187 185 185 187 187 186 188 188 188 186 186 191 196 194 192 195 195 196 196 193 192 194 195 201 205 198 195 194 190 193 195 191 189 188 186 188 193 193 193 195 196 194 193 192 189 190 188 181 184 186 179 180 188 189 180 174 180 185 189 200 205 196 194 193 187 184 178 171 191 207 224 258 274 295
199 208 224 219 198 191 190 189 190 191 190 187 185 185 186 186 186 186 188 190 188 187 191 194 192 191 194 196 198 197 193 192 192 192 200 206 199 193 190 189 193 195 191 190 188 184 187 192 192 192 196 197 194 192 191 189 189 187 182 185 186 183 190 196 187 176 175 179 189 208 210 201 196 192 183 176 179 182 185 196 208 223 241 263 295
200 201 212 221 210 195 191 190 190 191 191 188 185 186 186 185 185 186 188 191 190 188 192 194 193 192 194 197 198 195 192 193 193 194 203 209 200 189 186 189 193 193 191 191 189 186 188 191 190 190 194 197 196 194 193 190 187 185 183 186 187 187 195 197 186 179 180 180 193 224 215 201 197 188 177 175 173 171 182 203 214 214 216 239 268
199 202 204 209 208 200 193 193 193 192 192 189 185 186 187 185 185 185 188 190 190 190 193 194 194 194 194 195 193 192 192 193 193 198 203 203 194 184 183 190 193 192 192 192 190 188 190 192 192 190 193 198 199 198 197 193 190 188 186 187 191 192 192 190 186 187 187 185 195 221 197 194 191 176 172 178 176 166 174 197 197 194 207 236 253
198 204 205 202 201 200 197 195 195 193 191 188 186 185 186 186 185 185 188 190 191 192 193 193 195 194 194 193 191 191 193 192 193 197 198 197 192 185 185 191 192 192 192 193 193 192 191 194 194 192 194 199 200 200 200 196 194 193 191 191 196 198 195 189 189 194 193 191 197 183 167 175 176 169 170 179 181 178 186 193 188 191 218 242 253
210 209 207 203 199 198 198 197 196 193 190 188 187 186 185 186 186 186 188 190 192 193 192 193 194 195 195 194 191 192 193 193 195 198 198 199 197 190 188 192 192 191 193 193 194 194 193 194 194 194 197 199 199 200 201 197 195 196 196 196 200 205 205 199 196 198 197 195 200 194 175 170 174 179 181 185 190 195 199 202 207 214 232 254 261
215 214 210 211 206 200 197 195 193 192 191 188 186 186 186 186 185 186 187 188 190 192 192 192 193 194 194 193 191 192 193 194 198 200 198 199 197 190 189 192 190 191 193 192 193 194 194 195 195 194 197 197 194 195 196 195 194 194 195 196 196 203 210 208 203 206 207 203 204 202 189 180 183 190 194 199 207 209 204 202 211 222 231 249 260
204 205 207 212 212 204 198 195 191 189 190 191 188 186 186 185 184 186 186 187 190 191 190 190 191 193 193 193 193 194 193 194 198 199 197 196 194 190 189 191 190 190 191 191 193 194 194 196 196 195 197 197 193 190 191 191 191 191 190 189 189 193 201 204 202 205 208 207 204 202 196 190 189 193 200 207 214 219 211 199 197 212 229 248 267
202 202 207 211 211 207 200 194 192 190 189 191 190 188 186 185 185 186 186 188 191 191 189 190 192 195 196 195 197 198 195 194 197 197 195 194 192 189 188 191 190 188 188 188 190 193 195 196 196 195 197 198 193 190 190 188 187 188 187 185 188 193 197 200 202 203 206 206 206 206 203 201 199 202 210 216 219 225 222 211 205 211 230 256 277
211 206 206 208 208 207 199 191 193 196 194 191 190 189 186 185 185 186 187 189 190 189 189 190 193 198 199 198 200 202 200 197 196 196 194 193 192 188 188 192 190 186 185 186 187 191 195 196 196 196 198 200 194 191 193 191 186 188 189 188 191 195 197 201 206 210 211 211 212 212 211 212 214 215 219 222 224 227 225 222 220 218 225 244 264
216 212 205 205 206 206 199 191 197 204 202 194 190 189 187 186 185 185 186 187 187 187 187 189 192 195 197 199 200 202 202 198 195 194 193 193 191 188 188 193 190 184 183 185 187 191 192 194 196 197 199 200 195 193 197 195 188 188 192 193 196 197 197 198 202 209 215 215 215 215 215 218 221 223 225 226 227 227 226 226 227 224 228 234 240
209 209 207 204 203 203 200 196 199 204 203 196 190 189 188 188 186 185 185 185 186 187 187 190 193 195 197 200 200 201 202 199 195 193 192 193 192 189 188 193 191 185 183 184 187 191 193 193 196 199 199 199 195 195 199 197 191 188 191 196 200 198 194 193 193 196 203 206 206 208 212 215 218 222 224 225 228 229 228 228 228 228 233 232 229
210 207 207 204 200 199 199 198 199 200 197 192 190 190 190 189 187 186 186 184 185 186 188 190 193 195 196 199 199 199 200 199 196 194 192 193 193 190 186 190 191 187 185 185 187 191 194 193 196 198 199 198 195 195 198 197 195 194 193 195 199 194 187 188 190 192 196 197 195 197 203 205 208 214 218 221 229 232 228 229 230 230 235 236 231
222 211 207 206 202 199 197 195 195 195 191 189 189 190 190 189 188 187 187 185 185 186 188 190 192 193 192 193 193 194 196 196 196 195 193 193 193 189 186 187 189 186 186 189 188 189 194 194 193 195 198 200 198 196 196 196 197 199 197 195 198 193 187 188 193 194 195 193 189 193 199 201 204 211 216 220 229 231 226 228 232 232 233 232 230
232 218 206 202 201 200 196 192 191 191 188 186 187 189 188 188 188 188 188 187 186 187 188 190 191 190 189 189 188 188 190 193 195 196 195 194 192 188 186 186 186 184 186 190 188 189 194 196 191 190 196 201 197 193 192 193 196 201 202 199 201 198 193 196 200 197 197 196 192 195 204 210 215 220 222 227 233 228 221 222 226 228 225 223 224
233 222 204 197 198 199 197 193 190 189 187 186 187 189 189 188 188 189 189 188 188 189 189 189 190 190 188 188 185 181 183 189 193 194 195 194 191 188 187 186 185 184 185 186 186 188 193 193 188 185 190 196 194 190 190 191 195 202 206 206 207 205 201 202 204 200 200 204 203 204 209 215 221 224 225 232 237 226 212 211 216 218 217 217 221
237 227 204 193 195 201 201 196 191 188 187 188 189 190 191 191 189 187 188 189 190 190 189 188 189 189 186 184 180 175 178 185 190 191 192 192 191 188 188 189 185 182 182 182 181 183 185 182 181 182 186 190 192 191 190 191 193 199 204 207 210 208 205 207 210 208 206 208 211 215 217 219 223 224 224 230 237 230 214 209 211 210 208 211 218
251 234 193 180 185 199 204 200 195 190 188 190 191 192 192 192 191 189 190 191 191 190 189 190 190 189 186 182 178 175 177 184 189 192 192 191 190 188 190 191 185 176 175 175 172 171 171 169 171 176 179 181 184 186 189 192 196 199 202 205 209 209 206 208 213 216 215 213 215 218 219 219 221 223 224 229 233 230 220 210 206 207 208 212 220
227 177 161 167 180 196 203 201 198 193 190 192 195 195 195 194 193 193 195 196 197 195 193 193 193 191 189 185 182 180 183 189 195 197 194 191 189 188 189 191 184 173 171 172 165 160 159 161 164 169 173 175 178 182 186 192 198 203 207 208 209 209 208 209 213 216 217 216 216 216 216 217 219 221 226 232 230 222 212 205 206 215 223 228 233
201 172 164 171 186 199 207 210 207 199 191 192 196 198 199 200 199 199 200 201 202 202 200 199 196 193 190 190 190 190 191 193 197 198 195 192 191 189 188 189 182 171 170 172 164 157 156 158 162 168 172 174 178 182 185 190 195 201 207 209 209 209 210 211 213 215 215 216 215 215 217 219 221 224 228 229 220 207 202 205 213 222 230 236 241
194 181 175 177 187 196 203 210 215 210 199 193 194 195 197 201 205 207 207 204 204 204 203 201 199 195 193 193 193 196 197 195 196 196 195 193 192 190 189 188 182 173 171 170 164 159 159 161 165 171 174 178 182 185 187 191 194 197 202 205 206 208 209 211 214 215 215 216 215 215 216 218 223 229 230 222 210 200 202 209 215 220 227 234 237
189 182 176 174 183 193 199 204 212 214 207 197 193 191 189 191 199 205 206 204 204 204 201 199 198 197 197 197 195 195 195 194 195 196 194 192 192 190 188 186 182 177 174 172 167 166 168 168 170 175 180 184 188 190 192 196 198 198 199 199 201 205 209 210 211 212 214 215 214 214 216 218 223 230 228 216 208 208 209 211 213 217 223 228 230
182 177 175 176 181 191 201 208 210 211 207 199 191 188 186 185 188 195 199 202 203 202 199 199 198 197 199 202 201 197 195 194 196 197 194 191 190 189 187 186 184 180 178 176 170 169 173 176 178 182 185 188 190 192 195 200 201 201 201 200 200 203 207 208 208 209 213 216 215 215 217 220 224 230 228 219 215 217 218 218 218 218 221 224 228
187 183 179 179 182 189 201 213 216 212 208 200 192 187 185 185 185 184 185 192 198 200 199 199 198 197 198 201 201 197 196 196 198 198 193 189 189 187 185 185 184 183 183 183 179 175 176 177 180 185 189 192 193 193 195 201 204 203 204 204 204 204 204 204 205 206 209 214 216 215 216 218 223 229 228 221 217 218 221 224 223 217 215 219 224
217 195 182 183 190 193 198 209 217 215 208 198 191 187 186 186 185 182 180 183 190 196 197 195 192 192 193 194 195 195 195 195 196 196 192 188 186 184 180 178 180 184 186 188 187 185 183 180 181 186 189 193 196 195 196 201 205 206 207 207 207 205 204 205 205 204 204 209 214 215 215 215 217 222 224 220 217 217 220 224 224 218 216 221 224
223 213 189 184 193 198 199 205 217 219 212 202 194 187 184 185 185 183 183 185 186 187 190 191 191 191 192 192 194 195 195 193 192 192 190 187 184 179 176 176 180 184 187 190 191 190 188 186 187 189 193 197 198 197 198 203 207 209 210 211 209 206 206 207 206 202 199 202 209 215 218 214 211 213 218 219 219 221 224 225 225 222 221 226 230
181 213 212 194 196 203 208 211 214 215 208 197 189 181 176 179 183 183 185 187 186 182 182 184 186 191 195 197 198 197 195 193 191 190 189 187 185 182 180 181 182 184 187 191 192 190 190 192 194 196 203 208 204 197 198 206 211 211 210 212 213 210 207 206 206 203 199 198 203 211 216 215 209 208 212 215 217 221 226 228 227 225 225 228 233
44 34 336 240 205 203 209 212 202 193 187 183 180 175 171 175 182 184 184 185 184 181 179 181 183 186 191 198 200 198 193 188 185 183 183 183 184 185 185 183 182 184 186 188 188 188 192 198 201 203 210 218 218 207 202 209 218 218 212 209 209 210 211 214 219 220 214 208 207 209 212 213 212 210 210 211 214 218 223 226 225 223 224 228 232
20 19 15 358 229 201 207 212 205 192 190 190 186 178 173 177 184 186 185 184 183 180 179 183 187 190 191 194 196 192 184 178 176 176 178 182 184 186 186 184 183 184 185 185 187 190 193 197 202 204 207 213 220 218 213 215 218 217 213 209 206 206 210 213 212 210 209 208 207 206 206 208 212 213 212 212 215 218 220 224 225 223 223 227 231
9 6 5 359 344 218 211 214 210 199 194 193 188 182 180 182 186 188 189 189 188 186 184 185 191 195 195 194 193 189 183 180 180 180 180 182 185 186 185 184 184 185 185 185 188 192 193 194 197 200 204 209 213 213 215 219 216 206 204 209 210 207 207 207 203 200 202 203 201 199 198 202 210 214 212 213 217 221 223 225 228 227 226 227 230
10 3 358 354 343 280 223 216 214 210 206 202 196 191 189 188 187 189 191 189 188 188 190 193 197 199 198 198 198 195 189 185 184 183 182 183 185 185 185 186 186 187 187 189 191 192 192 191 191 196 202 207 208 210 214 216 210 198 195 201 204 203 204 204 202 202 205 204 201 200 202 206 210 212 212 215 220 225 228 228 228 229 228 227 229
13 6 358 353 347 325 249 219 217 214 211 208 204 198 193 189 188 190 191 189 186 187 193 198 200 200 201 203 201 198 193 188 185 183 184 185 186 186 187 189 189 189 190 191 191 190 189 189 190 196 202 203 206 211 213 208 199 195 196 198 200 202 204 204 204 205 205 204 205 206 207 208 211 213 216 220 223 226 228 228 227 227 229 229 229
15 15 7 358 353 351 340 266 222 205 203 207 211 207 197 191 190 193 194 192 189 190 195 200 198 196 201 204 201 198 195 191 186 184 184 186 187 188 189 190 191 190 190 189 187 186 189 192 196 202 206 204 205 210 212 206 199 199 199 198 201 204 203 201 201 202 200 201 203 206 206 208 211 214 218 221 223 225 227 226 224 224 226 228 228
18 22 21 15 9 5 1 348 321 195 185 195 204 207 201 195 194 197 198 199 198 197 199 200 196 192 194 197 195 192 192 192 190 188 187 187 188 189 189 190 190 188 186 185 185 187 191 195 199 204 209 208 205 207 209 207 204 203 201 199 202 206 205 202 203 205 205 204 205 207 210 212 214 216 218 219 221 222 224 225 224 222 222 223 225
16 18 22 23 22 19 14 4 354 349 26 169 175 184 192 195 197 199 201 203 204 205 205 203 197 192 190 188 188 189 191 193 192 190 188 189 190 191 189 187 187 187 186 186 187 188 190 193 196 201 206 207 203 203 205 204 200 201 202 203 204 207 210 210 209 210 211 210 208 209 214 218 219 219 219 218 219 221 223 225 225 222 218 219 222
11 13 18 22 21 20 19 13 7 8 16 30 99 150 174 190 199 203 202 199 197 199 204 206 201 196 192 189 189 192 194 194 192 190 190 191 193 192 188 186 186 187 188 189 189 189 192 196 197 198 200 198 194 194 198 202 202 202 205 207 208 210 212 211 207 205 209 213 213 213 216 219 219 219 218 217 218 221 223 223 224 224 223 222 223
11 11 17 24 23 20 18 13 9 10 17 26 44 75 112 160 182 187 185 184 186 190 195 198 199 198 196 194 195 198 200 197 193 190 190 192 193 191 188 186 185 186 189 191 191 190 191 192 193 193 194 194 192 191 197 202 203 201 201 204 209 214 216 214 211 210 214 219 219 216 214 215 217 218 218 217 218 221 222 222 223 225 227 228 228
14 14 19 25 26 23 20 17 11 9 15 26 43 64 91 128 144 151 160 166 174 182 187 189 191 194 195 196 199 204 211 208 199 192 190 191 190 187 186 186 186 188 188 186 186 188 188 185 186 190 195 197 196 197 199 199 197 195 195 199 205 210 212 211 209 209 212 217 218 215 211 212 216 218 216 216 219 221 222 221 222 222 225 229 230
6 15 23 27 27 25 21 19 17 15 15 23 38 56 85 123 129 133 147 154 157 167 177 179 182 186 189 190 194 203 221 222 203 193 188 186 184 183 183 185 188 190 187 180 178 184 188 188 190 196 198 198 197 197 194 192 192 195 198 201 203 204 204 205 204 204 205 209 213 212 209 209 213 215 213 214 217 219 220 221 222 220 221 225 228
353 360 13 26 34 35 30 27 28 28 24 23 32 43 56 86 107 120 136 147 150 160 173 178 180 181 181 182 186 192 205 205 192 188 185 182 179 179 181 184 186 188 186 179 177 182 187 190 196 200 197 193 193 192 189 190 194 199 200 202 203 203 203 203 202 201 201 203 206 207 207 209 214 218 216 215 216 216 215 217 219 218 218 220 224
357 354 358 14 37 49 48 40 37 39 40 38 37 44 57 81 100 115 134 149 154 160 168 172 175 179 178 176 175 171 152 141 149 159 166 170 171 172 176 180 183 186 186 185 186 190 191 192 196 198 194 191 192 193 194 199 205 204 201 203 205 205 204 203 201 199 199 199 201 203 204 207 213 220 221 218 216 214 213 215 219 222 223 222 223